sat.trackr.live / text

‹ back to catalog

STARLINK-31395

NORAD 59180 · 2024-045C

PAYLOAD ACTIVE UNKNOWN

§ Identity

Operator
Country
US
Launch date
2024-03-10
Launch site
AFETR
Launch vehicle
Mass (kg)
RCS (m²)

Purposes: comms

External: N2YO · Heavens-Above · Gunter

§ Orbital elements

Epoch: 2026-05-25T01:01:14.247264Z

Period
94.26 min
Inclination
43.0036°
Eccentricity
0.0001036
Mean motion
15.27637319 rev/d
Perigee alt
482.2 km
Apogee alt
483.6 km
Semi-major
6,861.0 km
B*
2.6235e-4
RAAN
21.7672°
Arg perigee
243.5511°
Mean anomaly
116.5235°
Rev number
12,483

§ Raw data

STARLINK-313951 59180U 24045C   26145.04252601  .00006976  00000+0  26235-3 0  99942 59180  43.0036  21.7672 0001036 243.5511 116.5235 15.27637319124832

JSON: /api/v1/satellites/59180 · /tle

For live sub-satellite position, see the globe view (requires WebGL).

§ Visibility from observer

Set your observer location to see the next 7 days of passes ≥ 10°. The values pass through the URL so the page stays shareable.

No JS? Fill the form by hand. The geolocation button needs JavaScript.